Retour au catalogue

DELTA 1 DEB

ActifSSO
NORAD 37656·DEBRIS·🇺🇸 United States

Lancé Mar 5, 1978 depuis Vandenberg Space Force Base

Loading…

Prochains Passages (prochaines 24 heures)

TLE

VieillissantSource: Space-Track

Époque: Sep 3, 2026, 05:33 UTC

1 37656U 78026JT  26246.23149503  .00000164  00000-0  11507-3 0  9995
2 37656  99.1537 249.3695 0018812 163.8281 196.3494 14.11815459202953

Suivez DELTA 1 DEB en temps réel avec AllMySat

Download on the App Store